285  
SXUS52 KTAE 230805  
OSOTAE  
OSOTAE  
NORTH FLORIDA/SOUTH ALABAMA/SOUTHWEST GEORGIA WEATHER ROUNDUP  
NATIONAL WEATHER SERVICE TALLAHASSEE FLORIDA  
400 AM EDT THU MAR 23 2017  
 
NOTE: "FAIR" INDICATES FEW OR NO CLOUDS BELOW 12,000 FEET WITH NO  
SIGNIFICANT WEATHER AND/OR OBSTRUCTIONS TO VISIBILITY.  
 
!FLZ017-115-028-034-025-230900   
..NORTH FLORIDA
 
 
 
CITY SKY/WX TMP DP RH WIND PRES REMARKS  
TALLAHASSEE PTCLDY 66 51 58 E9 30.19S  
APALACHICOLA MOCLDY 68 65 90 E12G22 30.14F  
PERRY MOCLDY 63 53 69 NE6 30.20S  
CROSS CITY CLEAR 64 59 82 E5 30.18F  
JACKSONVILLE MOCLDY 62 57 83 NE10 30.21S  

 
 
!FLZ112-006-005-002-011-230900   
..FLORIDA PANHANDLE
 
 
 
CITY SKY/WX TMP DP RH WIND PRES REMARKS  
MARIANNA PTCLDY 63 48 58 E5 30.18S  
BONIFAY NOT AVBL  
PANAMA CITY NW FAIR 66 47 50 N9 30.14F  
TYNDALL AFB CLEAR 67 52 59 NE8 30.15S  
TYND DRONE APT FAIR 65 54 66 NE10 30.15S  
DE FUNIAK SPR FAIR 63 42 45 NE10 30.18F  
EGLIN AFB PTCLDY 66 44 44 NE7 30.15F  
DESTIN CLEAR 69 49 48 NE8 30.15F  
HURLBURT CLEAR 66 43 44 N8 30.14F  
CRESTVIEW CLEAR 62 43 49 NE7 30.19F  
PENSACOLA CLEAR 68 48 48 NE6 30.16S  

 
 
!ALZ063-066-230900   
..SOUTH ALABAMA
 
 
 
CITY SKY/WX TMP DP RH WIND PRES REMARKS  
DOTHAN CLEAR 60 43 53 NE10 30.23F  
OZARK CAIRNS CLEAR 60 40 48 NE12 30.19F  
FT RUCKER HELI CLEAR 59 40 48 N5 30.20S  
RUCKER HELI 3 FAIR 59 38 45 NE7 30.20S  
RUCKER HELI 2 FAIR 61 39 44 NE8 30.20S  
FLORALA APT CLEAR 58 43 57 NE8 30.21S  
ANDALUSIA CLEAR 62 39 42 NE8 30.19F  
TROY CLEAR 56 34 43 NE5 30.23S  
EUFALA FAIR 58 36 43 CALM 30.22F  
MOBILE CLEAR 64 52 64 NE8 30.18S  

 
 
!GAZ120>161-230900   
..SOUTHWEST AND SOUTH CENTRAL GEORGIA
 
 
 
CITY SKY/WX TMP DP RH WIND PRES REMARKS  
THOMASVILLE FAIR 61 55 82 E7 30.24S  
BAINBRIDGE CLEAR 64 50 59 E8 30.21F  
MOODY AFB PTCLDY 59 54 84 NE8 30.22F  
VALDOSTA CLEAR 59 55 87 NE8 30.22F  
MOULTRIE CLEAR 61 54 77 CALM 30.24S  
BLAKELY PTCLDY 63 50 63 E7 30.22F  
ALBANY PTCLDY 63 52 67 E8 30.26F  
TIFTON FAIR 59 54 82 E5 30.25S  
FITZGERALD FAIR 60 53 78 E6 30.29S  
CORDELE PTSUNNY 63 51 64 E9 30.29S  
AMERICUS CLOUDY 61 45 55 SE10G22 30.28S  
HOMERVILLE FAIR 57 55 94 NE5 30.24F  

 
 
!GMZ750-755-770-775-230900   
..COASTAL AND BUOY OBS
 
 
 
STATION/POSITION TIME TEMP WIND PRES VSBY WAVE  
AIR SEA DIR/SP/G HT/PER  
(UTC) (F) (DEG/KT/KT) (MB) (MI) (FT/S)  
KEATON BEACH 0800 64 60/ 7/ 8 1021.4F  
CEDAR KEY 0700 67 60/ 9/ 10 1022.0R  
C TOWER 0800 67 90/ 19/ 21 1020.7S  
APALACHICOLA BUO 0650 69 68 70/ 10/ 12 1020.6 2/ 5  
PANAMA CITY BUOY 0650 71 71 1020.9 2/ 5  
MOBILE BUOY 0750 72 73 330/ 6/ 8 1020.6F 1/ 3  
ORANGE BCH AL BU 0650 70 69 40/ 4/ 4 1021.3 1/ 3  

 
 
 
CLICK HERE TO GO TO PREVIOUS BULLETINS.

The Nexlab FL Page
The Nexlab GA Page
The Nexlab AL Page Main Text Page